Burlington, IA

6:59 AM CST on December 03, 2016 (GMT -0600)
Burlington Regional

Weather History for KBRL - April, 2014

Change the Weather History Date:

Tuesday, April 29, 2014

  Actual Average Record
Temperature  
Mean Temperature 51 °F 58 °F  
Max Temperature 57 °F 69 °F 90 °F (1910)
Min Temperature 44 °F 47 °F 26 °F (1958)
Degree Days  
Heating Degree Days 14 8  
Month to date heating degree days 374 350  
Since 1 July heating degree days 6662 5456  
Cooling Degree Days 0 1  
Month to date cooling degree days 8 19  
Year to date cooling degree days 8 21  
Growing Degree Days 2 (Base 50)    
Moisture  
Dew Point 46 °F    
Average Humidity 77    
Maximum Humidity 92    
Minimum Humidity 62    
Precipitation  
Precipitation 0.03 in 0.16 in 0.85 in (1963)
Month to date precipitation 4.04 3.61  
Year to date precipitation 9.58 9.26  
Sea Level Pressure  
Sea Level Pressure 29.52 in    
Wind  
Wind Speed 11 mph (SW)    
Max Wind Speed 23 mph    
Max Gust Speed 27 mph    
Visibility 9 miles    
Events Rain    
T = Trace of Precipitation, MM = Missing Value Source: NWS Daily Summary

Daily Weather History Graph

Daily Weather History Graph

Search for Another Location

Airport or City:

Trip Planner

Search our weather history database for the weather conditions in past years. The results will help you decide how hot, cold, wet, or windy it might be!

Date:

Astronomy

Apr. 29, 2014 Rise Set
Actual Time 6:05 AM CDT 7:58 PM CDT
Civil Twilight 5:36 AM CDT 8:28 PM CDT
Nautical Twilight 5:00 AM CDT 9:04 PM CDT
Astronomical Twilight 4:21 AM CDT 9:43 PM CDT
Moon 6:23 AM CDT (4/29) 8:39 PM CDT (4/29)
Length of Visible Light 14h 52m
Length of Day
13h 53m
New Moon, 0% of the Moon is Illuminated
Apr 29
New Moon
May 6
First Quarter
May 14
Full
May 21
Last Quarter
May 28
New

Hourly Weather History & Observations

Time (CDT) Temp. Windchill Dew Point Humidity Pressure Visibility Wind Dir Wind Speed Gust Speed Precip Events Conditions
12:53 AM 54.0 °F - 46.0 °F 75% 29.44 in 10.0 mi ESE 6.9 mph - 0.00 in   Overcast
1:53 AM 57.0 °F - 44.1 °F 62% 29.42 in 10.0 mi SE 10.4 mph - N/A   Overcast
2:53 AM 55.9 °F - 44.1 °F 64% 29.41 in 10.0 mi SSE 8.1 mph - N/A   Overcast
3:53 AM 54.0 °F - 45.0 °F 72% 29.40 in 10.0 mi SSE 5.8 mph - 0.00 in   Overcast
4:53 AM 52.0 °F - 46.0 °F 80% 29.39 in 10.0 mi South 4.6 mph - N/A   Overcast
5:53 AM 52.0 °F - 46.0 °F 80% 29.39 in 10.0 mi SSW 3.5 mph - N/A   Overcast
6:53 AM 53.1 °F - 44.1 °F 71% 29.40 in 10.0 mi SW 10.4 mph - N/A   Overcast
7:53 AM 51.8 °F - 44.6 °F 76% 29.42 in 10.0 mi SW 8.1 mph - N/A   Overcast
8:53 AM 54.0 °F - 45.0 °F 72% 29.43 in 10.0 mi SW 12.7 mph - 0.00 in   Overcast
9:53 AM 54.0 °F - 46.9 °F 77% 29.44 in 10.0 mi SSW 17.3 mph - N/A   Overcast
10:31 AM 55.0 °F - 46.9 °F 74% 29.45 in 10.0 mi SSW 17.3 mph - N/A   Overcast
10:38 AM 55.0 °F - 46.9 °F 74% 29.45 in 10.0 mi SSW 13.8 mph - N/A   Overcast
10:53 AM 54.0 °F - 46.0 °F 75% 29.45 in 10.0 mi SW 13.8 mph - N/A   Overcast
11:11 AM 54.0 °F - 46.0 °F 75% 29.46 in 10.0 mi SSW 11.5 mph - N/A   Overcast
11:24 AM 55.9 °F - 46.9 °F 72% 29.46 in 10.0 mi SSW 12.7 mph - N/A   Overcast
11:46 AM 54.0 °F - 46.0 °F 75% 29.47 in 10.0 mi SSW 13.8 mph - N/A   Overcast
11:53 AM 55.0 °F - 46.0 °F 72% 29.47 in 10.0 mi SW 16.1 mph - N/A   Overcast
12:01 PM 55.0 °F - 46.0 °F 72% 29.47 in 10.0 mi SW 15.0 mph - N/A   Overcast
12:51 PM 53.6 °F - 46.4 °F 77% 29.49 in 10.0 mi SSW 15.0 mph 25.3 mph N/A   Overcast
12:53 PM 53.1 °F - 46.0 °F 77% 29.49 in 10.0 mi SSW 19.6 mph 25.3 mph N/A   Overcast
1:01 PM 53.1 °F - 46.0 °F 77% 29.49 in 10.0 mi SSW 19.6 mph 26.5 mph N/A   Overcast
1:10 PM 52.0 °F - 46.0 °F 80% 29.50 in 9.0 mi SSW 16.1 mph 27.6 mph N/A   Overcast
1:20 PM 52.0 °F - 46.0 °F 80% 29.50 in 10.0 mi SSW 13.8 mph - N/A   Overcast
1:53 PM 55.0 °F - 46.0 °F 72% 29.50 in 10.0 mi SSW 15.0 mph - N/A   Overcast
2:10 PM 53.1 °F - 46.0 °F 77% 29.51 in 10.0 mi South 16.1 mph - N/A   Overcast
2:53 PM 50.0 °F - 46.9 °F 89% 29.53 in 10.0 mi SSW 15.0 mph - 0.00 in Rain Light Rain
3:53 PM 50.0 °F - 46.9 °F 89% 29.55 in 10.0 mi SSW 12.7 mph - 0.00 in Rain Light Rain
4:00 PM 51.1 °F - 48.0 °F 89% 29.55 in 10.0 mi SSW 15.0 mph - 0.00 in Rain Light Rain
4:53 PM 50.0 °F - 46.4 °F 87% 29.56 in 10.0 mi SSW 17.3 mph - N/A Rain Light Rain
5:00 PM 50.0 °F - 46.4 °F 87% 29.56 in 9.0 mi SW 11.5 mph - N/A Rain Light Rain
5:18 PM 50.0 °F - 46.9 °F 89% 29.56 in 10.0 mi SW 10.4 mph - 0.00 in Rain Light Rain
5:53 PM 50.0 °F - 46.0 °F 86% 29.57 in 10.0 mi SSW 13.8 mph - 0.00 in   Overcast
6:08 PM 50.0 °F - 46.0 °F 86% 29.57 in 10.0 mi SSW 12.7 mph - N/A   Overcast
6:53 PM 50.0 °F - 46.0 °F 86% 29.59 in 10.0 mi SW 11.5 mph - N/A   Overcast
7:29 PM 50.0 °F - 46.0 °F 86% 29.60 in 10.0 mi WSW 8.1 mph - N/A   Overcast
7:53 PM 50.0 °F - 44.1 °F 80% 29.60 in 10.0 mi SW 10.4 mph - N/A   Overcast
8:25 PM 50.0 °F - 46.0 °F 86% 29.61 in 10.0 mi SSW 10.4 mph - N/A   Overcast
8:53 PM 50.0 °F - 46.9 °F 89% 29.62 in 10.0 mi SW 10.4 mph - N/A   Overcast
9:40 PM 48.9 °F - 48.0 °F 97% 29.63 in 3.0 mi SW 6.9 mph - 0.00 in Rain Light Rain
9:48 PM 48.2 °F - 48.2 °F 100% 29.64 in 3.0 mi West 8.1 mph - 0.01 in Rain Light Rain
9:53 PM 48.2 °F - 48.2 °F 100% 29.64 in 3.0 mi WNW 11.5 mph - N/A Rain Light Rain
10:00 PM 48.0 °F - 46.9 °F 96% 29.64 in 3.0 mi NW 10.4 mph - 0.00 in Rain Light Rain
10:53 PM 46.9 °F - 45.0 °F 93% 29.66 in 10.0 mi NW 8.1 mph - 0.01 in   Overcast
11:53 PM 45.0 °F 40.1 °F 43.0 °F 93% 29.68 in 10.0 mi WNW 9.2 mph 19.6 mph N/A   Overcast